Terminal Aerodrome Forecast
Issued by NWS

Home | Current Version | Previous Version | Text Only | Print | Product List | Glossary On
Versions: 1 2 3 4 5 6 7 8 9 10 11 12 13 14 15 16 17 18 19 20 21 22 23 24 25 26 27 28 29 30 31 32 33 34 35 36 37 38 39 40 41 42
000
FTUS41 KBOX 241739
TAFACK
TAF
KACK 241739Z 2418/2518 36008KT P6SM BKN010
     FM242000 03009KT P6SM BKN010
     FM250300 02005KT P6SM BKN025
     FM250600 35007KT P6SM SCT200
     FM251000 36007KT P6SM SCT050
     FM251400 35007KT P6SM FEW250=

USA.gov is the U.S. government's official web portal to all federal, state and local government web resources and services.